Logan, UT

7:16 AM MST on December 08, 2019 (GMT -0700)
Logan-Cache

Weather History for KLGU - November, 2019

Change the Weather History Date:

Wednesday, November 20, 2019

  Actual Average Record
Temperature  
Mean Temperature 38 °F -  
Max Temperature 43 °F 42 °F 64 °F (2016)
Min Temperature 34 °F 23 °F 7 °F (1956)
Degree Days  
Heating Degree Days 26    
Moisture  
Dew Point 32 °F    
Average Humidity 75    
Maximum Humidity 86    
Minimum Humidity 55    
Precipitation  
Precipitation 0.00 in - - ()
Sea Level Pressure  
Sea Level Pressure 29.70 in    
Wind  
Wind Speed 4 mph ()    
Max Wind Speed 13 mph    
Max Gust Speed 22 mph    
Visibility 10.0 miles    
Events Rain    
Averages and records for this station are not official NWS values.
T = Trace of Precipitation, MM = Missing Value Source: Averaged Metar Reports

Daily Weather History Graph

Daily Weather History Graph

Search for Another Location

Airport or City:

Astronomy

Nov. 20, 2019 Rise Set
Actual Time 7:22 AM MST 5:02 PM MST
Civil Twilight 6:52 AM MST 5:33 PM MST
Nautical Twilight 6:18 AM MST 6:07 PM MST
Astronomical Twilight 5:45 AM MST 6:40 PM MST
Moon 12:04 AM MST (11/20) 2:07 PM MST (11/20)
Length of Visible Light 10h 40m
Length of Day
9h 40m
Last Quarter, 40% of the Moon is Illuminated
Nov 20
Last Quarter
Nov 26
New
Dec 3
First Quarter
Dec 11
Full
Dec 18
Last Quarter

Hourly Weather History & Observations

Time (MST) Temp. Windchill Dew Point Humidity Pressure Visibility Wind Dir Wind Speed Gust Speed Precip Events Conditions
12:51 AM 37.0 °F 34.5 °F 30.0 °F 76% 29.63 in 10.0 mi NE 3.5 mph - N/A   Clear
2:51 AM 34.0 °F 28.8 °F 28.9 °F 82% 29.61 in 10.0 mi NW 5.8 mph - N/A   Clear
3:51 AM 37.9 °F 35.5 °F 30.9 °F 76% 29.61 in 10.0 mi West 3.5 mph - N/A   Clear
4:51 AM 37.0 °F 34.5 °F 30.9 °F 79% 29.62 in 10.0 mi SSE 3.5 mph - N/A   Mostly Cloudy
5:51 AM 35.1 °F - 30.9 °F 85% 29.61 in 10.0 mi Calm Calm - N/A   Mostly Cloudy
6:51 AM 37.0 °F - 30.9 °F 79% 29.62 in 10.0 mi Calm Calm - N/A   Overcast
7:51 AM 37.0 °F - 30.9 °F 79% 29.65 in 10.0 mi Calm Calm - N/A   Overcast
8:51 AM 37.9 °F - 33.1 °F 83% 29.66 in 10.0 mi Calm Calm - N/A   Overcast
9:51 AM 41.0 °F - 30.9 °F 67% 29.66 in 10.0 mi Calm Calm - N/A   Overcast
10:51 AM 41.0 °F - 32.0 °F 70% 29.65 in 10.0 mi Calm Calm - N/A   Overcast
11:51 AM 41.0 °F 39.0 °F 33.1 °F 73% 29.64 in 10.0 mi SSW 3.5 mph - 0.00 in Rain Light Rain
12:51 PM 42.1 °F 40.2 °F 33.1 °F 70% 29.64 in 10.0 mi West 3.5 mph - 0.00 in   Overcast
1:51 PM 42.1 °F 39.2 °F 34.0 °F 73% 29.65 in 10.0 mi SW 4.6 mph - N/A   Overcast
2:51 PM 43.0 °F 41.3 °F 34.0 °F 71% 29.67 in 10.0 mi NW 3.5 mph - N/A   Overcast
3:51 PM 43.0 °F 36.8 °F 34.0 °F 71% 29.69 in 10.0 mi North 11.5 mph - N/A   Overcast
4:51 PM 41.0 °F 34.7 °F 34.0 °F 76% 29.72 in 10.0 mi NNW 10.4 mph - N/A   Overcast
5:51 PM 39.9 °F 36.7 °F 34.0 °F 79% 29.75 in 10.0 mi WNW 4.6 mph - N/A   Overcast
6:51 PM 39.9 °F 34.5 °F 34.0 °F 79% 29.76 in 10.0 mi NW 8.1 mph - 0.00 in   Overcast
7:51 PM 39.9 °F 33.9 °F 33.1 °F 77% 29.79 in 10.0 mi ESE 9.2 mph - N/A   Overcast
8:11 PM 41.0 °F 34.7 °F 28.9 °F 62% 29.79 in 10.0 mi NE 10.4 mph - N/A   Overcast
8:51 PM 39.9 °F 35.8 °F 32.0 °F 73% 29.81 in 10.0 mi NE 5.8 mph - N/A   Overcast
9:51 PM 39.0 °F 34.8 °F 34.0 °F 82% 29.82 in 10.0 mi NW 5.8 mph - N/A   Overcast
10:51 PM 37.9 °F - 34.0 °F 86% 29.83 in 10.0 mi Calm Calm - N/A   Mostly Cloudy
11:51 PM 41.0 °F 33.9 °F 26.1 °F 55% 29.83 in 10.0 mi SE 12.7 mph 21.9 mph N/A   Overcast